Tracking 30417 objects as of 16-May-2025
HD Live streaming from Space Station
objects crossing your sky now

THORAD AGENA D DEB

Track THORAD AGENA D DEB now!
10-day predictions


NORAD ID: 4687
Int'l Code: 1970-025BL
Perigee: 1,054.8 km
Apogee: 1,096.0 km
Inclination: 99.5 °
Period: 106.6 minutes
Semi major axis: 7446 km
RCS: 0.2719 m2 (medium)
Launch date: April 8, 1970
Source: United States (US)
Launch site: AIR FORCE WESTERN TEST RANGE (AFWTR)

Note: This is SATELLITE DEBRIS
Your satellite tracking list
Your tracking list is empty




NASA's NSSDC Master Catalog

Two Line Element Set (TLE):
1 04687U 70025BL  25135.36288075  .00000160  00000-0  31118-3 0  9998
2 04687  99.5167 291.2503 0027685 199.3347 222.2741 13.51080713710557
Source of the keplerian elements: AFSPC